Weather History for KIPT - January, 2012

Change the Weather History Date:

Tuesday, January 17, 2012

  Actual Average Record
Temperature  
Mean Temperature 42 °F 26 °F  
Max Temperature 49 °F 34 °F 61 °F (1990)
Min Temperature 34 °F 19 °F -13 °F (2009)
Degree Days  
Heating Degree Days 23 39  
Month to date heating degree days 565 652  
Since 1 July heating degree days 2453 2945  
Cooling Degree Days 0 0  
Month to date cooling degree days 0 0  
Year to date cooling degree days 0 0  
Moisture  
Dew Point 33 °F    
Average Humidity 77    
Maximum Humidity 92    
Minimum Humidity 61    
Precipitation  
Precipitation 0.07 in 0.09 in 1.64 in (1924)
Month to date precipitation 1.68 1.46  
Year to date precipitation 1.68 1.46  
Snow  
Snow 0.00 in - - ()
Month to date snowfall 0.5  
Since 1 July snowfall 2.0  
Snow Depth T in    
Sea Level Pressure  
Sea Level Pressure 29.75 in    
Wind  
Wind Speed 9 mph (East)    
Max Wind Speed 24 mph    
Max Gust Speed 35 mph    
Visibility 8 miles    
Events Rain    
T = Trace of Precipitation, MM = Missing Value Source: NWS Daily Summary

Daily Weather History Graph

Daily Weather History Graph

Search for Another Location

Airport or City:

Trip Planner

Search our weather history database for the weather conditions in past years. The results will help you decide how hot, cold, wet, or windy it might be!

Date:

Astronomy

Jan. 17, 2012 Rise Set
Actual Time 7:30 AM EST 5:05 PM EST
Civil Twilight 7:00 AM EST 5:35 PM EST
Nautical Twilight 6:26 AM EST 6:09 PM EST
Astronomical Twilight 5:53 AM EST 6:42 PM EST
Moon 1:47 AM EST (1/17) 11:57 AM EST (1/17)
Length of Visible Light 10h 35m
Length of Day
9h 34m
Waning Crescent, 35% of the Moon is Illuminated
Jan 17
Waning Crescent
Jan 23
New
Jan 30
First Quarter
Feb 7
Full
Feb 14
Last Quarter

Hourly Weather History & Observations

Time (EST) Temp. Windchill Dew Point Humidity Pressure Visibility Wind Dir Wind Speed Gust Speed Precip Events Conditions
12:54 AM 34.0 °F 28.0 °F 25.0 °F 70% 30.04 in 10.0 mi ESE 6.9 mph - N/A   Overcast
1:09 AM 35.6 °F 31.7 °F 24.8 °F 65% 30.02 in 10.0 mi Variable 4.6 mph - N/A   Overcast
1:54 AM 34.0 °F 28.8 °F 27.0 °F 75% 30.02 in 9.0 mi NE 5.8 mph - 0.00 in Rain Light Rain
2:54 AM 34.0 °F 28.8 °F 28.9 °F 82% 30.01 in 9.0 mi East 5.8 mph - 0.00 in Rain Light Rain
3:45 AM 33.8 °F 26.4 °F 30.2 °F 87% 29.97 in 10.0 mi East 9.2 mph - 0.00 in   Overcast
3:54 AM 35.1 °F 29.3 °F 30.0 °F 82% 29.99 in 10.0 mi East 6.9 mph - 0.00 in   Overcast
4:18 AM 35.6 °F 30.7 °F 30.2 °F 81% 29.97 in 10.0 mi Variable 5.8 mph 18.4 mph N/A   Overcast
4:54 AM 35.6 °F 29.9 °F 30.2 °F 81% 29.95 in 9.0 mi ESE 6.9 mph 20.7 mph N/A Rain Light Rain
5:54 AM 36.0 °F 30.3 °F 30.9 °F 82% 29.95 in 10.0 mi East 6.9 mph - 0.01 in   Overcast
6:08 AM 35.6 °F 29.2 °F 30.2 °F 81% 29.93 in 10.0 mi East 8.1 mph - N/A   Overcast
6:52 AM 35.6 °F 28.6 °F 30.2 °F 81% 29.92 in 10.0 mi East 9.2 mph - N/A   Overcast
6:54 AM 35.6 °F 28.6 °F 30.2 °F 81% 29.92 in 10.0 mi ENE 9.2 mph - N/A   Overcast
7:54 AM 36.0 °F 28.5 °F 32.0 °F 86% 29.91 in 9.0 mi ENE 10.4 mph - 0.00 in Rain Light Rain
8:08 AM 35.6 °F 28.6 °F 32.0 °F 87% 29.89 in 6.0 mi ENE 9.2 mph - 0.00 in Rain Light Rain
8:25 AM 37.4 °F 29.8 °F 32.0 °F 81% 29.89 in 9.0 mi ENE 11.5 mph - N/A   Overcast
8:54 AM 37.0 °F 29.8 °F 33.1 °F 86% 29.89 in 3.0 mi ENE 10.4 mph - 0.00 in Rain Light Rain
9:54 AM 37.0 °F 30.4 °F 33.1 °F 86% 29.87 in 5.0 mi ENE 9.2 mph - 0.01 in Rain Rain
10:54 AM 37.0 °F 29.3 °F 33.1 °F 86% 29.82 in 7.0 mi ENE 11.5 mph - 0.04 in Rain Light Rain
11:54 AM 37.9 °F 29.6 °F 34.0 °F 86% 29.75 in 9.0 mi East 13.8 mph 19.6 mph 0.00 in   Overcast
12:54 PM 39.0 °F 31.8 °F 35.1 °F 86% 29.71 in 8.0 mi ENE 11.5 mph 17.3 mph 0.01 in Rain Light Rain
1:46 PM 39.2 °F 31.6 °F 35.6 °F 87% 29.65 in 9.0 mi East 12.7 mph 20.7 mph 0.00 in   Overcast
1:54 PM 39.9 °F 33.4 °F 36.0 °F 86% 29.66 in 9.0 mi East 10.4 mph 20.7 mph 0.00 in   Overcast
2:54 PM 39.2 °F 33.6 °F 37.4 °F 93% 29.63 in 9.0 mi East 8.1 mph 19.6 mph N/A   Overcast
3:07 PM 39.2 °F 33.0 °F 37.4 °F 93% 29.62 in 7.0 mi East 9.2 mph - N/A   Overcast
3:54 PM 41.0 °F 35.8 °F 37.9 °F 89% 29.61 in 8.0 mi East 8.1 mph - N/A   Overcast
4:15 PM 41.0 °F 36.4 °F 37.4 °F 87% 29.58 in 9.0 mi Variable 6.9 mph - N/A   Overcast
4:54 PM 42.1 °F 37.1 °F 37.9 °F 85% 29.57 in 10.0 mi East 8.1 mph 21.9 mph N/A   Scattered Clouds
5:11 PM 42.8 °F 38.6 °F 37.4 °F 81% 29.56 in 10.0 mi Variable 6.9 mph 20.7 mph N/A   Mostly Cloudy
5:54 PM 43.0 °F 37.2 °F 39.0 °F 86% 29.56 in 10.0 mi East 10.4 mph - N/A   Overcast
6:27 PM 42.8 °F 37.0 °F 37.4 °F 81% 29.55 in 10.0 mi East 10.4 mph - N/A   Scattered Clouds
6:54 PM 43.0 °F 38.2 °F 39.0 °F 86% 29.55 in 10.0 mi East 8.1 mph - N/A   Overcast
7:54 PM 42.1 °F 37.1 °F 39.0 °F 89% 29.53 in 10.0 mi East 8.1 mph - N/A   Mostly Cloudy
8:54 PM 37.0 °F - 35.1 °F 93% 29.53 in 3.0 mi Calm Calm - N/A   Overcast
9:24 PM 35.6 °F - 33.8 °F 93% 29.52 in 1.8 mi Calm Calm - N/A   Mostly Cloudy
9:40 PM 35.6 °F - 35.6 °F 100% 29.53 in 3.0 mi Calm Calm - 0.00 in Rain Light Rain
9:54 PM 35.1 °F 32.2 °F 34.0 °F 96% 29.57 in 2.5 mi SSE 3.5 mph - 0.00 in   Mostly Cloudy
10:11 PM 39.2 °F 35.9 °F 37.4 °F 93% 29.55 in 8.0 mi WSW 4.6 mph - N/A   Mostly Cloudy
10:54 PM 48.9 °F - 35.1 °F 59% 29.59 in 10.0 mi West 21.9 mph 33.4 mph N/A   Scattered Clouds
11:54 PM 46.0 °F 38.0 °F 30.0 °F 54% 29.64 in 10.0 mi West 21.9 mph 32.2 mph N/A   Mostly Cloudy